Powrót do katalogu

STARLINK-36208

AktywnyŁącznośćVLEO
NORAD 67108·PAYLOAD·🇺🇸 United States

Wystrzelony Dec 15, 2025 z Cape Canaveral Space Force Station

Loading…

Następne Przeloty (najbliższe 24 godziny)

TLE

ŚwieżeSource: CelesTrak SupGP

Epoka: Sep 15, 2026, 02:50 UTC

1 67108C 25299G   26258.11854167 -.00028852  00000+0 -10452-2 0  2583
2 67108  42.9998 178.8476 0001424 276.1656 347.2498 15.27588698    17

Śledź STARLINK-36208 w czasie rzeczywistym z AllMySat

Download on the App Store